M8SEY-13 Weather Reports


Display with metric or nautical units.
time (UTC)temp
F
wind
direction
speed
MPH
gust
MPH
rain 1hr
in
rain 24hr
in
rain mn
in
humidity
%
barometer
mb
20260505233517 48 90 1.0 4.0 0.00 0.00 0.00 76 1015.8
20260505232517 48 0.0 2.0 0.00 0.00 0.00 75 1015.7
20260505231517 49 0.0 3.0 0.00 0.00 0.00 75 1015.8
20260505230517 49 0.0 1.0 0.00 0.00 0.00 74 1015.8
20260505225517 49 90 1.0 3.0 0.00 0.00 0.00 74 1015.8
20260505224517 49 45 1.0 4.0 0.00 0.00 0.00 74 1015.7
20260505223517 49 45 1.0 4.0 0.00 0.00 0.00 74 1015.7
20260505222517 49 68 1.0 3.0 0.00 0.00 0.00 74 1015.8
20260505221517 49 90 1.0 4.0 0.00 0.00 0.00 74 1015.7
20260505220517 49 45 1.0 4.0 0.00 0.00 0.00 75 1015.6
20260505215517 50 0 1.0 2.0 0.00 0.00 0.00 76 1015.7
20260505214517 50 68 2.0 6.0 0.00 0.00 0.00 77 1015.6
20260505213537 50 90 1.0 3.0 0.00 0.00 0.00 77 1015.5
20260505212517 50 0 1.0 6.0 0.00 0.00 0.00 77 1015.5
20260505211537 51 68 1.0 5.0 0.00 0.00 0.00 76 1015.4
20260505210517 51 45 1.0 3.0 0.00 0.00 0.00 75 1015.5
20260505205537 51 68 2.0 4.0 0.00 0.00 0.00 76 1015.4
20260505204517 51 0 2.0 4.0 0.00 0.00 0.00 76 1015.2
20260505203517 51 315 2.0 5.0 0.00 0.00 0.00 75 1015.2
20260505202517 51 315 1.0 4.0 0.00 0.00 0.00 74 1015.3
20260505201517 51 338 1.0 3.0 0.00 0.00 0.00 73 1015.2
20260505200517 51 293 1.0 4.0 0.00 0.00 0.00 73 1015.2
20260505195517 51 315 1.0 5.0 0.00 0.00 0.00 73 1015.1
20260505194517 52 315 2.0 5.0 0.00 0.00 0.00 72 1015.0
20260505193517 52 315 2.0 5.0 0.00 0.00 0.00 72 1014.8
20260505192537 52 315 2.0 5.0 0.00 0.00 0.00 72 1014.8
20260505191517 52 315 2.0 6.0 0.00 0.00 0.00 72 1014.6
20260505190517 52 315 2.0 6.0 0.00 0.00 0.00 72 1014.6
20260505185517 52 315 3.0 6.0 0.00 0.00 0.00 71 1014.7
20260505184537 52 315 3.0 8.0 0.00 0.00 0.00 73 1014.7
20260505183517 53 315 2.0 5.0 0.00 0.00 0.00 74 1014.7
20260505182537 53 338 3.0 8.0 0.00 0.00 0.00 72 1014.7
20260505181537 53 315 3.0 7.0 0.00 0.00 0.00 71 1014.6
20260505180516 53 338 3.0 6.0 0.00 0.00 0.00 68 1014.6
20260505175517 54 315 3.0 9.0 0.00 0.00 0.00 66 1014.5
20260505174516 55 293 4.0 9.0 0.00 0.00 0.00 64 1014.5
20260505173517 54 315 3.0 9.0 0.00 0.00 0.00 65 1014.4
20260505172516 54 338 4.0 10.0 0.00 0.00 0.00 69 1014.4
20260505171516 54 338 4.0 9.0 0.00 0.00 0.00 66 1014.6
20260505170517 55 315 2.0 5.0 0.00 0.00 0.00 65 1014.7
20260505165537 55 315 4.0 9.0 0.00 0.00 0.00 65 1014.6
20260505164516 55 315 2.0 5.0 0.00 0.00 0.00 71 1014.6
20260505163516 55 315 4.0 8.0 0.00 0.00 0.00 71 1014.6
20260505162517 55 315 4.0 7.0 0.00 0.00 0.00 71 1014.7
20260505161517 56 315 3.0 8.0 0.00 0.00 0.00 71 1014.6
20260505160516 55 293 2.0 8.0 0.00 0.00 0.00 71 1014.5
20260505152516 54 315 2.0 9.0 0.00 0.00 0.00 72 1014.5
20260505151537 53 315 3.0 7.0 0.00 0.00 0.00 74 1014.7
20260505150516 53 315 4.0 9.0 0.00 0.00 0.00 74 1014.8
20260505140536 56 315 4.0 8.0 0.00 0.00 0.00 66 1014.9
20260505124516 54 338 5.0 10.0 0.00 0.00 0.00 69 1014.9
20260505123516 55 293 5.0 11.0 0.00 0.00 0.00 68 1014.7
20260505122516 57 315 4.0 10.0 0.00 0.00 0.00 62 1014.7
20260505121516 57 315 4.0 11.0 0.00 0.00 0.00 62 1014.7
20260505120516 55 293 3.0 9.0 0.00 0.00 0.00 64 1014.8
20260505115516 55 338 5.0 11.0 0.00 0.00 0.00 68 1014.8
20260505114536 55 315 4.0 9.0 0.00 0.00 0.00 68 1014.8
20260505113516 54 338 4.0 10.0 0.00 0.00 0.00 69 1015.0
20260505112516 53 315 3.0 7.0 0.00 0.00 0.00 70 1015.2
20260505111516 52 315 2.0 5.0 0.00 0.00 0.00 72 1015.2
20260505110516 52 315 3.0 8.0 0.00 0.00 0.00 74 1015.2
20260505101516 53 315 3.0 8.0 0.00 0.00 0.00 72 1015.1
20260505100516 53 315 3.0 8.0 0.00 0.00 0.00 73 1015.3
20260505095516 53 315 3.0 10.0 0.00 0.00 0.00 75 1015.3
20260505094516 53 315 3.0 8.0 0.00 0.00 0.00 76 1015.2
20260505093516 53 315 4.0 7.0 0.00 0.00 0.00 77 1015.4
20260505092516 52 315 2.0 6.0 0.00 0.00 0.00 79 1015.4
20260505091516 52 315 2.0 5.0 0.00 0.00 0.00 80 1015.2
20260505090516 52 315 2.0 7.0 0.00 0.00 0.00 81 1015.3
20260505085516 52 315 3.0 6.0 0.00 0.00 0.00 81 1015.3
20260505084516 52 315 2.0 5.0 0.00 0.00 0.00 83 1015.2
20260505083516 52 315 1.0 5.0 0.00 0.00 0.00 84 1015.3
20260505082516 51 338 2.0 5.0 0.00 0.00 0.00 84 1015.3
20260505081516 51 315 2.0 5.0 0.00 0.00 0.00 84 1015.4
20260505080516 50 315 2.0 4.0 0.00 0.00 0.00 81 1015.4
20260505075516 50 315 1.0 4.0 0.00 0.00 0.00 83 1015.2
20260505074516 51 338 1.0 4.0 0.00 0.00 0.00 86 1015.4
20260505073515 51 315 1.0 3.0 0.00 0.00 0.00 87 1015.4
20260505072516 50 293 1.0 5.0 0.00 0.00 0.00 87 1015.4
20260505071515 50 315 1.0 3.0 0.00 0.00 0.00 87 1015.3
20260505070516 50 0.0 2.0 0.00 0.00 0.00 88 1015.3
20260505065516 49 0.0 2.0 0.00 0.00 0.00 88 1015.4
20260505064535 49 0.0 2.0 0.00 0.00 0.00 89 1015.5
20260505063515 48 0.0 0.0 0.00 0.00 0.00 90 1015.6
20260505062515 47 0.0 0.0 0.00 0.00 0.00 91 1015.6
20260505061516 46 0.0 0.0 0.00 0.00 0.00 92 1015.6
20260505060516 45 0.0 0.0 0.00 0.00 0.00 91 1015.6
20260505055555 45 0.0 0.0 0.00 0.00 0.00 91 1015.6
20260505054515 45 0.0 0.0 0.00 0.00 0.00 93 1015.5
20260505053515 43 0.0 0.0 0.00 0.00 0.00 94 1015.6
20260505052515 41 0.0 0.0 0.00 0.00 0.00 94 1015.6
20260505051515 40 0.0 0.0 0.00 0.00 0.00 93 1015.4
20260505050515 40 0.0 0.0 0.00 0.00 0.00 93 1015.4
20260505041515 43 0.0 0.0 0.00 0.00 0.00 92 1015.2
20260505040535 43 0.0 0.0 0.00 0.00 0.00 92 1015.1
20260505035515 43 0.0 0.0 0.00 0.00 0.00 91 1015.1
20260505034515 44 0.0 0.0 0.00 0.00 0.00 91 1015.1
20260505033515 44 0.0 0.0 0.00 0.00 0.00 91 1015.1
20260505032515 44 0.0 1.0 0.00 0.00 0.00 91 1015.1
20260505031515 44 0.0 3.0 0.00 0.00 0.00 92 1015.0
20260505030515 44 0.0 1.0 0.00 0.00 0.00 93 1015.0
20260505025515 43 0.0 1.0 0.00 0.00 0.00 94 1015.0
20260505024515 43 0.0 0.0 0.00 0.00 0.00 94 1015.1
20260505023515 42 0.0 0.0 0.00 0.00 0.00 94 1015.2
20260505022515 41 0.0 0.0 0.00 0.00 0.00 93 1015.2
20260505021517 41 0.0 0.0 0.00 0.00 0.00 92 1015.3
20260505020537 42 0.0 0.0 0.00 0.00 0.00 92 1015.3
20260505015517 43 0.0 0.0 0.00 0.00 0.00 92 1015.4
20260505014517 43 0.0 0.0 0.00 0.00 0.00 91 1015.4
20260505013537 44 0.0 0.0 0.00 0.00 0.00 91 1015.6
20260505012517 44 0.0 0.0 0.00 0.00 0.00 91 1015.7
20260505011517 45 0.0 0.0 0.00 0.00 0.00 91 1015.8
20260505010517 45 0.0 0.0 0.00 0.00 0.00 90 1015.8
20260505005517 45 0.0 0.0 0.00 0.00 0.00 89 1015.7
20260505004537 46 0.0 0.0 0.00 0.00 0.00 89 1015.8
20260505003517 47 0.0 0.0 0.00 0.00 0.00 89 1015.8
20260505002517 47 0.0 0.0 0.00 0.00 0.00 89 1015.8
20260505001517 47 0.0 0.0 0.00 0.00 0.00 90 1015.8
20260505000517 47 0.0 0.0 0.00 0.00 0.00 90 1015.8
20260504235517 47 0.0 0.0 0.00 0.00 0.00 89 1015.9
20260504234517 47 0.0 0.0 0.00 0.00 0.00 89 1016.1